This demonstration page uses our WeatherBlox Daily Observations layout. Learn more.

Hourly Observations for October 18, 2019

Temp ( °F °C ) Dew Point ( °F °C ) Humidity (%) Winds ( mph kmh ) Pressure ( in mb ) Visibility ( mi km ) Precip ( " mm )
12:53 am 00:53 Clear 43 6.1 30 -1.1 60 60 NW 6 9 29.45 997 10 16.0934 0 0
1:53 am 01:53 Clear 43 6.1 28 -2.2 56 56 NNW 7 11 29.42 996 10 16.0934 0 0
2:53 am 02:53 Clear 41 5 28 -2.2 60 60 NW 9 15 29.41 996 10 16.0934 0 0
3:53 am 03:53 Clear 40 4.4 27 -2.8 60 60 WNW 9 15 29.4 996 10 16.0934 0 0
4:53 am 04:53 Clear 41 5 27 -2.8 57 57 NNW 8 13 29.41 996 10 16.0934 0 0
5:53 am 05:53 Clear 43 6.1 27 -2.8 53 53 NW 12 19 29.46 998 10 16.0934 0 0
6:53 am 06:53 Clear 40 4.4 27 -2.8 60 60 WNW 12 19 29.5 999 10 16.0934 0 0
7:53 am 07:53 Sunny 41 5 28 -2.2 60 60 WNW 14 22 29.54 1000 10 16.0934 0 0
8:53 am 08:53 Sunny 51 10.6 33 0.6 50 50 NW 14 22 29.58 1002 10 16.0934 0 0
9:53 am 09:53 Sunny 56 13.3 36 2.2 47 47 NW 18 30 29.61 1003 10 16.0934 0 0
10:53 am 10:53 Sunny 56 13.3 37 2.8 49 49 NW 21 33 29.62 1003 10 16.0934 0 0
11:53 am 11:53 Mostly Cloudy 54 12.2 36 2.2 51 51 NW 18 30 29.67 1005 10 16.0934 0 0
12:53 pm 12:53 Cloudy 55 12.8 38 3.3 53 53 NW 16 26 29.69 1006 10 16.0934 0 0
1:53 pm 13:53 Sunny 57 13.9 38 3.3 49 49 NW 16 26 29.66 1005 10 16.0934 0 0
2:53 pm 14:53 Partly Cloudy 58 14.4 37 2.8 46 46 NW 15 24 29.66 1005 10 16.0934 0 0
3:53 pm 15:53 Sunny 59 15 36 2.2 42 42 NW 12 19 29.68 1005 10 16.0934 0 0
4:53 pm 16:53 Sunny 59 15 36 2.2 42 42 NNW 15 24 29.7 1006 10 16.0934 0 0
5:53 pm 17:53 Sunny 55 12.8 36 2.2 49 49 NNW 8 13 29.71 1006 10 16.0934 0 0
6:53 pm 18:53 Clear 48 8.9 35 1.7 61 61 N 6 9 29.76 1008 10 16.0934 0 0
7:53 pm 19:53 Clear 45 7.2 34 1.1 66 66 Calm 29.8 1009 10 16.0934 0 0
8:53 pm 20:53 Clear 39 3.9 32 0 76 76 E 3 6 29.81 1010 10 16.0934 0 0
9:53 pm 21:53 Partly Cloudy 38 3.3 32 0 79 79 ESE 6 9 29.83 1010 10 16.0934 0 0
10:53 pm 22:53 Mostly Cloudy 36 2.2 31 -0.6 82 82 Calm 29.83 1010 10 16.0934 0 0
11:53 pm 23:53 Mostly Cloudy 37 2.8 33 0.6 86 86 N 6 9 29.85 1011 10 16.0934 0 0

Powered by AerisWeather